Regional Weather Roundup
Issued by NWS

Home | Current Version | Previous Version | Text Only | Print | Product List | Glossary Off
Versions: 1 2 3 4 5 6 7 8 9 10 11 12 13 14 15 16 17 18 19 20 21 22 23 24 25 26 27 28 29 30 31 32 33 34 35 36 37 38 39 40 41 42 43 44 45 46 47 48 49 50

000
ASUS45 KTFX 230719
RWRMT
MONTANA HOURLY WEATHER ROUNDUP
NATIONAL WEATHER SERVICE GREAT FALLS MT
119 AM MDT THU OCT 23 2014

NOTE: "FAIR" INDICATES FEW OR NO CLOUDS BELOW 12000 FEET WITH NO
SIGNIFICANT WEATHER AND/OR OBSTRUCTIONS TO VISIBILITY.

* THESE STATIONS ARE NOT UNDER NWS QUALITY CONTROL. THEY DO NOT
   REPORT WEATHER SUCH AS PRECIPITATION OR FOG.

MTZ001>007-043-230800-
WEST OF THE DIVIDE
CITY           SKY/WX    TMP DP  RH WIND       PRES   REMARKS
KALISPELL      CLOUDY    55  37  51 S13       29.81F
MISSOULA       CLOUDY    54  36  51 SE8       29.88F
BUTTE          CLOUDY    45  28  51 CALM      30.00F
MULLAN PASS    RAIN      37  36  96 S8G23     29.89S WCI  31
* ESSEX        N/A       41  38  89 S1G6       N/A
* LINCOLN      N/A       35  30  82 NW3        N/A
* POLSON       N/A       49  36  61 S2G7       N/A
* RONAN APT    CLOUDY    55  36  49 SE7        N/A
* SEELEY LAKE  N/A       32  31  96 NE1        N/A
* THOMP F APT  CLOUDY    38  23  55 NE6G12     N/A   WCI  33
$$

MTZ008-052>055-230800-
SOUTHWEST MONTANA
CITY           SKY/WX    TMP DP  RH WIND       PRES   REMARKS
BOZEMAN        MOCLDY    36  30  79 SE8       30.00F WCI  30
DILLON         CLOUDY    43  28  56 SW9       30.02F
W YELLOWSTONE  CLOUDY    27  25  92 CALM      30.18R
* THREE FORKS  CLOUDY    52  30  43 S25G37     N/A
* BOULDER HILL N/A       40  25  55 SW14       N/A   WCI  32
* MONIDA PASS  N/A       38  24  57 SE17G23    N/A   WCI  29
* RAYNOLDS PAS N/A       37  21  52 SE15G23    N/A   WCI  28
* WHITEHALL    N/A       44  31  60 N1G9       N/A
* WISE RIVER   N/A       34  31  89 SW4        N/A
$$

MTZ009>010-012-014-046-048-049-054-230800-
EAST SLOPES AND CENTRAL MONTANA
CITY           SKY/WX    TMP DP  RH WIND       PRES   REMARKS
CUT BANK       MOCLDY    46  36  68 S8        29.75F
GREAT FALLS    CLEAR     52  30  43 S18G28    29.82F
HELENA         PTCLDY    55  28  35 S20G29    29.89F
MALMSTROM AFB  CLEAR     52  32  47 S25G33    29.82F
* CONRAD       MOCLDY    45  37  74 N/A        N/A
* DEARBORN     N/A       58  31  36 S12G26     N/A
* EAST GLACIER N/A       51  32  48 W8G24      N/A
* MONARCH      N/A       48  19  32 S19G26     N/A
* PENDROY      N/A       47  35  63 SW14G20    N/A
* SAINT MARY   N/A       53  34  49 SW9G23     N/A
* SWEET GRASS  N/A       44  35  71 S11        N/A
* WHITE SULPH  N/A       45  24  44 S12G20     N/A
$$

MTZ011-013-016-021-035-040-045-047-050-051-230800-
NORTH CENTRAL MONTANA
CITY           SKY/WX    TMP DP  RH WIND       PRES   REMARKS
HAVRE          PTCLDY    48  36  63 SW12      29.77F
LEWISTOWN      CLEAR     52  28  40 SW17G22   29.89F
* CHINOOK      CLEAR     43  34  71 E5        29.78F
* FORT BENTON  CLEAR     54  32  43 SW9       29.81F
* CHESTER      N/A       46  35  66 S4G11      N/A
* DENTON       N/A       47  31  54 S12        N/A
* GEYSER       N/A       51  27  39 W11G17     N/A
* JUDITH GAP   N/A       48  28  46 SW5        N/A
* LOMA         N/A       56  33  42 S14G22     N/A
$$

MTZ017>020-022>027-061-062-230800-
NORTHEAST MONTANA
CITY           SKY/WX    TMP DP  RH WIND       PRES   REMARKS
GLASGOW        CLEAR     39  30  70 SE7       29.84S WCI  34
GLENDIVE       CLEAR     36  28  73 S8        29.90F WCI  30
JORDAN         CLEAR     28  25  89 SW5       29.88S WCI  22
SIDNEY         CLEAR     34  30  85 S3        29.89S
WOLF POINT     CLEAR     32  27  82 CALM      29.87S
* BEAVER HILL  N/A       45  27  49 S12        N/A
* CIRCLE       N/A       40  29  65 N/A        N/A
* LINDSAY DVD  N/A       43  28  56 SW9        N/A
* NAVAJO       N/A       41  31  68 W11        N/A
$$

MTZ028>042-056>058-230800-
SOUTHCENTRAL AND SOUTHEAST MONTANA
CITY           SKY/WX    TMP DP  RH WIND       PRES   REMARKS
BAKER          CLEAR     36  28  73 CALM      29.93F
BILLINGS       CLEAR     52  21  30 SW15      29.94F
LIVINGSTON     MOCLDY    52  21  30 SW25G36   29.97F
MILES CITY     CLEAR     39  27  62 SE10      29.91F WCI  32
* LAUREL APT   CLEAR     48  21  34 SW5        N/A
* ROUNDUP APT  CLEAR     45  25  45 S6         N/A
* ALZADA       N/A       39  29  67 E6         N/A   WCI  35
* HYSHAM       N/A       48  22  36 W1         N/A
* LAME DEER    N/A       47  22  37 SW4        N/A
* REED POINT   N/A       35  28  76 E2         N/A
* ROSCOE HILL  N/A       53  14  21 S16G30     N/A
$$

REGIONAL REPORTS...DAKOTAS
CITY           SKY/WX    TMP DP  RH WIND       PRES   REMARKS
WILLISTON      CLEAR     37  30  76 SW3       29.86S
DICKINSON      CLEAR     39  28  65 S7        29.90F WCI  34
BEACH          N/A       39  28  65 SW12      29.91F WCI  32
CROSBY         N/A       41  36  82 S12       29.83S
TIOGA          N/A       36  34  92 SW7       29.88S WCI  30
BISMARCK       CLEAR     43  34  71 W5        29.92S
GRAND FORKS    PTCLDY    45  45 100 SW7       29.84S
FARGO          PTCLDY    48  46  93 SW8       29.89S
BUFFALO SD     CLEAR     39  27  62 W5        29.90F WCI  35
RAPID CITY     CLEAR     37  32  82 W7        30.02F WCI  32
$$

REGIONAL REPORTS...WYOMING/IDAHO/WASHINGTON
CITY           SKY/WX    TMP DP  RH WIND       PRES   REMARKS
GILLETTE       PTCLDY    43  19  38 CALM      30.01F
SHERIDAN       CLEAR     34  21  59 SW5       29.97F WCI  29
CODY           PTCLDY    54  19  25 SW13G23   30.04S
YELLOWSTONE LA PTCLDY    25  23  92 NW3       30.22F
SALMON         CLOUDY   N/A N/A N/A N/A        N/A
MULLAN PASS    RAIN      37  36  96 S8G23     29.89S WCI  31
SAND POINT     LGT RAIN  46  46 100 CALM      29.79F
SPOKANE        CLOUDY    52  45  77 S14       29.74F
$$

REGIONAL REPORTS...ALBERTA
CITY           SKY/WX    TMP DP  RH WIND       PRES   REMARKS
CALGARY        MOCLDY    46  34  63 S5        29.59F
LETHBRIDGE     CLEAR     48  36  63 S5        29.67F
MEDICINE HAT   FAIR      50  37  61 S9        29.68S
EDMONTON       CLOUDY    39  32  76 S6        29.52F WCI  35
WATERTON GATE  N/A       54  34  47 SW24G43    N/A
CARDSTON       N/A       54  36  51 SW7        N/A
MILK RIVER     N/A       48  36  63 S15        N/A
$$

REGIONAL REPORTS...SASKATCHEWAN
CITY           SKY/WX    TMP DP  RH WIND       PRES   REMARKS
SWIFT CURRENT  CLEAR     43  36  76 S12       29.73F
REGINA         N/A       36  34  92 SW2       29.77S
VAL MARIE      N/A       30  28  92 NE1        N/A
ASSINIBOIA     N/A       39  34  82 SW9        N/A   WCI  33
CORONACH       N/A       39  34  82 NE5        N/A   WCI  35

$$




USA.gov is the U.S. government's official web portal to all federal, state and local government web resources and services.